Torna al catalogo

STARLINK-35784

AttivoComunicazioniVLEO
NORAD 67093·PAYLOAD·🇺🇸 United States

Lanciato Dec 14, 2025 da Vandenberg Space Force Base

Loading…

Prossimi Passaggi (prossime 24 ore)

TLE

AggiornatoSource: CelesTrak SupGP

Epoca: Sep 14, 2026, 21:21 UTC

1 67093C 25298U   26257.89006944  .00061795  00000+0  51785-2 0  2575
2 67093  69.9995 257.3173 0004118 264.9313 333.4796 14.98297561    12

Traccia STARLINK-35784 in tempo reale con AllMySat

Download on the App Store